Torna al catalogo

CZ-4C DEB

AttivoLEO
NORAD 45483·DEBRIS·🇨🇳 China

Lanciato Apr 10, 2018 da Jiuquan Satellite Launch Center

Loading…

Prossimi Passaggi (prossime 24 ore)

TLE

In scadenzaSource: Space-Track

Epoca: Sep 12, 2026, 05:50 UTC

1 45483U 18034L   26255.24333095 -.00000029  00000-0  83895-4 0  9998
2 45483  63.3948 245.4463 0277886   7.3141 353.1811 13.44350898376217

Traccia CZ-4C DEB in tempo reale con AllMySat

Download on the App Store